Probability
29 32 32 35 45 52 53 47 38 31 29 28 26 25 25 21 19 19 15 11 10 7 4 3 5 7 8 6 5 5 5 3 1 0 0 0 0 2 4 6 8 8 9
33 37 38 40 49 56 56 51 43 37 33 30 27 25 23 20 19 20 17 13 11 8 6 4 4 5 6 7 7 7 6 4 2 1 0 0 1 2 4 7 11 11 11
36 41 43 45 52 59 59 54 49 45 39 34 29 28 26 23 23 24 22 16 11 9 7 4 3 2 4 7 8 8 7 6 4 3 2 2 2 3 4 8 10 12 12
35 41 45 46 51 56 57 56 55 51 44 37 31 31 31 30 29 29 26 20 13 10 7 4 3 3 5 7 8 8 7 6 4 4 5 4 4 4 5 6 6 8 11
34 41 46 47 49 52 56 59 61 56 47 39 35 34 34 34 34 34 31 26 21 15 10 8 8 7 6 8 9 8 7 6 5 4 4 5 5 6 6 6 5 6 8
32 42 50 52 52 53 59 65 66 62 52 44 39 36 34 33 33 35 34 31 28 25 19 16 16 14 11 11 12 11 10 9 7 6 4 4 4 6 7 7 6 7 7
28 39 53 58 58 58 63 69 70 65 56 49 43 39 35 33 31 32 33 30 29 31 29 25 23 21 18 17 16 16 14 12 10 8 6 5 4 6 8 8 7 6 6
25 34 49 60 63 62 65 71 72 66 56 52 49 45 41 34 30 31 32 30 29 32 36 33 28 26 23 21 21 19 16 15 13 10 9 8 6 8 10 10 8 7 6
27 33 44 56 62 64 68 74 76 70 60 56 55 51 45 36 29 30 31 32 33 37 42 39 32 29 26 24 24 20 17 17 16 13 13 11 8 9 12 12 11 9 8
34 36 43 51 58 62 70 78 81 78 69 62 56 51 47 39 31 28 30 33 36 42 47 43 35 30 28 26 25 22 18 17 17 17 16 14 11 10 11 12 12 12 11
38 40 46 54 58 62 70 77 81 80 75 68 59 54 53 50 42 36 35 37 41 45 47 45 39 33 28 26 27 25 21 17 16 15 14 15 14 13 12 12 13 13 13
45 47 54 62 64 65 70 75 76 75 72 70 66 62 63 63 58 51 47 47 48 47 46 45 43 38 30 28 28 26 21 17 15 12 13 15 15 15 15 14 13 13 13
59 61 65 69 70 70 73 75 73 70 68 69 70 70 70 70 68 62 58 57 55 52 49 47 47 43 37 33 32 27 22 19 17 16 17 17 15 15 15 14 12 11 11
73 74 77 78 77 76 77 76 74 72 69 68 71 73 72 71 70 66 63 63 61 58 54 51 49 47 41 37 35 30 25 23 22 21 20 19 15 13 12 12 11 11 11
75 78 84 86 86 83 80 76 76 78 75 71 71 72 71 69 68 66 63 63 62 59 57 55 52 47 39 32 31 31 28 26 25 23 21 18 13 10 8 8 9 10 11
71 75 82 86 87 86 80 76 78 80 80 77 74 71 69 67 66 64 62 61 60 59 57 56 53 47 34 24 23 26 28 29 28 26 23 18 11 7 6 5 5 7 8
68 70 73 76 79 80 78 76 77 78 80 79 75 71 69 67 65 63 61 59 59 59 57 55 53 46 31 19 17 20 27 30 30 28 26 21 14 9 7 6 5 5 6
66 65 64 65 68 71 74 75 76 76 77 77 73 70 68 67 66 64 61 60 60 59 57 55 53 46 31 18 13 16 23 28 30 28 26 23 16 10 9 9 8 8 8
65 63 61 61 65 68 72 74 74 75 75 74 72 70 70 68 67 66 63 61 60 58 56 55 54 48 33 17 9 12 19 25 29 28 25 21 15 9 8 10 11 10 10
59 59 59 60 64 69 72 73 73 72 72 71 70 69 69 67 65 64 62 59 58 56 55 54 54 49 36 18 7 9 16 23 27 28 25 19 11 5 4 8 10 10 10
51 51 52 56 60 65 69 71 72 70 67 64 63 62 62 61 60 60 60 58 57 55 52 50 50 48 37 20 6 6 12 19 24 27 26 18 8 2 1 3 7 8 7
46 45 48 52 56 60 65 68 68 65 59 55 54 56 57 55 56 58 58 58 57 53 49 47 46 46 39 24 9 4 6 12 19 24 22 13 5 0 0 1 4 5 6
41 42 45 48 51 54 59 61 60 56 52 50 50 52 55 54 53 53 53 52 51 48 45 43 42 43 41 31 16 5 2 5 11 14 11 5 1 0 0 1 2 4 5
36 37 39 42 43 46 50 53 52 50 50 51 52 52 53 51 48 45 43 41 40 39 40 40 38 39 39 33 22 11 6 4 4 5 4 2 1 1 1 2 3 5 5
34 34 35 36 35 37 41 45 48 49 51 53 53 50 45 42 39 34 29 26 25 26 30 32 32 32 32 29 22 16 12 7 3 4 6 6 5 5 6 6 6 7 8
35 34 34 33 33 34 37 42 46 47 50 52 51 45 39 34 31 27 20 15 14 17 20 23 25 26 25 23 19 15 13 8 4 5 9 11 9 9 9 9 9 9 10
Wind_Speed
13 13 11 12 12 10 9 8 7 7 5 4 4 3 3 2 2 3 4 4 3 3 2 1 2 2 1 1 2 2 2 2 2 1 1 2 3 3 3 3 2 3 3
13 13 13 12 13 11 10 9 7 8 6 4 3 3 3 3 3 2 4 4 3 3 4 2 2 2 2 2 2 2 1 2 2 2 1 2 2 1 3 3 4 4 3
15 14 13 12 13 13 11 10 9 8 7 6 4 3 3 2 2 3 3 4 4 4 3 3 3 2 2 2 3 3 4 3 2 2 2 1 1 1 2 3 3 3 3
15 15 14 13 13 13 12 9 9 8 7 6 5 6 5 4 4 3 3 4 4 4 3 3 3 2 1 2 3 3 3 3 3 2 2 2 1 1 1 2 1 2 3
14 16 15 13 13 13 13 11 9 8 7 6 6 5 4 3 3 4 4 4 4 4 4 3 3 2 2 2 2 1 2 2 3 2 2 2 2 3 2 2 2 2 1
11 14 15 13 11 12 12 12 10 9 8 7 6 6 5 4 3 4 4 4 3 3 4 4 3 2 2 2 2 2 3 3 3 2 2 2 2 2 2 3 3 2 2
10 12 14 14 12 12 12 12 12 10 9 8 7 6 5 5 4 4 4 4 3 4 4 4 3 3 2 2 2 2 2 3 3 3 2 2 2 2 2 2 2 2 1
13 13 14 14 13 13 12 12 12 11 10 9 7 5 5 5 4 4 4 4 3 3 5 4 4 3 3 3 2 2 3 2 3 3 3 3 3 2 2 2 2 2 2
10 12 13 13 12 12 12 12 12 11 10 9 8 6 6 5 4 4 4 3 3 3 5 5 4 4 3 3 2 2 3 2 2 3 3 2 2 2 2 2 2 2 2
11 12 12 13 12 10 10 11 11 10 9 8 8 8 7 5 4 4 4 3 3 2 3 4 4 4 4 3 3 3 2 2 2 2 2 2 2 2 1 2 2 2 2
9 9 10 12 11 11 10 10 10 10 9 8 7 6 7 6 6 5 5 4 3 3 4 4 4 4 3 4 3 3 3 3 3 2 2 2 2 2 2 1 1 1 1
7 9 8 8 9 9 9 9 9 9 9 8 7 6 6 6 6 6 5 4 4 4 4 4 4 4 4 3 3 3 3 3 2 2 2 2 2 2 1 2 2 1 1
7 8 8 6 6 7 7 8 8 8 8 8 7 7 7 6 6 5 5 4 4 4 4 4 4 3 3 3 3 3 3 2 2 2 2 2 1 2 1 2 2 1 1
8 8 7 5 5 4 5 6 6 6 7 7 7 7 7 6 6 5 5 5 5 4 4 4 3 3 3 3 3 3 3 2 2 2 2 2 2 2 2 2 1 1 1
8 7 7 5 5 4 4 4 4 4 5 5 6 6 5 5 5 5 4 4 4 5 4 3 3 3 3 3 3 3 3 3 3 2 3 3 2 1 1 1 1 1 1
6 5 6 6 4 3 3 3 2 2 3 3 4 4 4 5 5 5 5 4 4 4 4 4 3 3 3 1 1 1 1 2 3 3 3 3 3 3 3 2 1 0 1
6 5 5 5 4 3 2 1 1 2 2 2 2 3 3 4 4 5 5 5 5 4 4 4 4 3 3 3 2 1 2 2 2 3 3 4 2 4 3 3 4 3 2
5 4 4 3 3 2 1 1 2 1 2 2 2 2 3 3 4 4 4 4 4 4 4 4 3 3 3 4 3 2 3 3 3 3 3 3 1 2 2 3 3 3 3
5 4 3 4 4 4 2 2 2 1 1 2 2 2 2 2 3 4 4 3 3 3 4 3 3 3 3 5 4 3 2 2 3 3 3 3 2 3 3 2 2 2 2
4 4 5 4 4 4 3 2 2 1 1 1 0 1 2 2 3 3 3 3 3 3 3 3 3 3 3 5 5 4 3 3 3 2 2 2 2 4 4 3 3 3 2
4 4 3 3 3 3 3 2 2 1 1 1 1 2 2 3 3 3 2 2 3 3 3 3 3 3 3 6 6 6 3 3 2 2 1 1 3 4 4 3 2 3 2
3 3 2 3 3 3 3 2 1 2 2 1 2 2 2 2 2 2 2 3 3 3 4 3 3 2 3 4 6 7 6 3 2 1 0 2 3 4 4 3 2 2 2
3 3 2 3 2 2 1 1 1 1 2 2 2 2 2 2 1 2 2 2 2 3 3 2 2 2 2 3 5 6 5 3 2 1 2 2 3 3 3 4 3 2 2
2 2 2 2 2 2 2 2 1 1 2 2 2 2 2 2 1 1 1 1 1 2 1 1 1 2 2 2 2 2 2 2 2 1 1 2 3 2 2 3 3 3 2
1 2 2 1 1 2 3 3 2 2 2 3 3 3 3 2 1 1 1 0 1 0 1 0 0 0 1 1 1 2 1 1 2 2 2 1 1 2 2 3 3 3 3
2 2 2 2 2 3 3 4 3 2 3 3 3 3 2 1 1 2 2 5 3 2 2 1 2 2 3 3 3 2 1 1 2 2 2 2 2 2 1 1 1 1 1
Wind_Direction
169 158 165 164 158 156 158 164 170 160 164 170 173 181 177 182 176 169 157 165 196 181 182 221 173 198 189 195 202 184 208 232 235 255 279 264 230 214 205 212 215 201 204
169 163 171 169 164 161 163 166 173 168 179 171 174 179 172 182 187 172 150 174 193 190 196 191 203 195 181 209 224 201 215 242 215 202 225 270 275 262 219 195 206 209 206
168 167 173 172 168 166 170 176 176 171 182 169 178 180 159 185 184 176 163 185 200 198 202 181 213 200 196 199 214 208 219 233 242 222 205 224 242 286 277 221 213 196 194
168 169 173 176 174 170 172 168 167 170 175 176 188 188 185 191 191 177 168 181 196 201 191 191 200 215 216 196 222 209 219 224 244 246 231 227 217 208 288 303 284 225 212
175 171 174 175 175 171 169 165 164 170 174 187 191 196 199 192 182 164 167 181 189 201 191 183 190 195 216 215 226 250 230 236 243 247 239 240 230 219 219 250 267 273 252
173 171 169 167 169 167 165 163 164 172 177 188 193 197 208 193 181 174 171 186 182 189 189 183 183 192 216 216 215 227 217 240 253 258 252 232 225 221 223 237 241 241 245
171 170 165 165 167 167 166 164 166 173 179 187 193 193 202 201 199 195 183 196 190 183 181 188 176 192 208 216 217 215 232 234 247 244 254 258 246 238 230 234 244 247 249
173 172 168 164 167 170 169 166 167 174 181 185 189 189 191 203 201 202 203 200 206 181 165 177 179 191 206 222 212 228 226 225 237 245 238 254 256 242 231 232 238 254 248
167 163 162 162 169 173 170 167 164 172 181 184 180 185 187 203 207 187 207 207 204 190 166 179 181 187 199 224 224 222 245 239 240 253 249 255 258 249 239 240 230 222 249
163 161 163 162 164 172 167 163 164 171 178 181 183 184 189 193 201 209 209 210 197 198 170 181 189 194 196 208 227 230 232 235 232 232 236 257 280 288 262 247 245 223 229
160 157 155 152 159 166 170 164 164 169 176 180 183 185 180 191 201 210 209 208 202 193 189 192 198 204 205 205 211 229 224 224 232 245 230 232 245 279 289 286 268 251 209
138 138 136 144 152 156 162 160 166 173 176 178 177 183 179 186 196 201 202 195 200 200 193 196 200 209 210 206 213 237 237 228 225 231 255 261 248 238 269 292 282 268 208
95 104 123 139 146 147 152 157 168 173 174 172 175 180 185 188 194 199 193 191 195 203 202 198 202 215 214 205 214 224 236 238 231 225 236 250 256 267 263 266 284 292 271
90 93 97 103 109 126 134 144 156 164 171 171 176 180 189 189 189 195 193 191 194 202 204 205 208 210 217 223 222 217 224 233 229 223 228 235 227 237 250 252 252 272 287
74 79 96 98 108 121 122 132 144 152 161 167 178 181 182 185 185 191 194 191 195 201 195 203 204 207 213 227 224 223 221 220 229 226 226 221 196 177 205 267 288 272 253
81 71 74 76 81 84 103 124 140 139 146 165 179 174 181 188 191 195 193 188 194 198 191 197 198 209 219 181 182 221 256 242 241 240 245 225 190 179 181 180 176 241 245
75 74 70 65 57 55 53 87 137 148 155 160 178 179 183 184 188 198 188 190 193 194 195 200 198 195 168 144 151 187 240 242 248 248 247 258 223 171 184 187 204 213 205
75 62 69 71 65 50 72 53 66 134 157 158 178 188 200 199 195 196 194 190 189 193 196 202 195 187 178 168 166 183 225 237 238 238 235 240 218 204 192 195 203 207 197
58 43 44 59 49 32 39 60 48 39 160 162 186 212 209 203 202 202 199 195 193 197 199 193 187 188 172 166 169 168 224 231 243 247 239 228 206 192 184 205 218 213 188
65 51 31 42 52 43 31 49 53 57 54 39 263 231 217 202 206 214 209 198 193 201 200 194 187 189 179 173 179 184 217 225 226 228 226 215 200 173 177 203 219 225 222
67 63 47 31 45 35 29 30 17 6 1 336 290 279 249 222 209 200 201 206 212 205 205 202 195 192 183 169 183 188 221 244 232 229 221 171 160 164 178 204 221 225 226
67 71 51 37 38 32 28 32 358 339 331 312 275 267 262 252 224 206 210 208 215 218 212 210 199 182 170 174 185 191 209 251 274 265 252 109 134 166 194 206 227 240 246
24 33 30 29 28 22 17 327 304 313 311 302 289 268 260 260 241 223 223 215 213 225 222 207 199 180 167 164 171 188 211 246 263 324 67 112 160 176 196 209 210 215 226
8 353 346 3 4 347 329 313 295 281 283 281 277 262 238 237 236 258 244 206 237 232 219 213 211 173 142 123 128 156 172 190 210 227 150 155 192 224 224 203 204 212 228
333 316 316 323 326 328 322 326 334 307 289 280 274 271 260 235 192 131 31 80 47 353 279 289 178 156 154 141 166 172 182 195 188 181 179 171 170 207 214 208 206 203 208
318 303 303 313 324 328 327 330 326 306 291 285 280 273 261 231 196 154 105 64 84 77 80 117 135 101 104 126 123 129 154 187 166 167 186 184 188 201 207 203 194 199 208